EW4529 Weather Reports


Display with metric or nautical units.
time (UTC)temp
F
wind
direction
speed
MPH
gust
MPH
rain 1hr
in
rain 24hr
in
rain mn
in
humidity
%
barometer
mb
20260905131324 73 6 0.0 2.0 0.00 0.00 0.00 77 1011.5
20260905130345 73 5 1.0 4.0 0.00 0.00 0.00 77 1011.5
20260905125312 72 3 1.0 2.0 0.00 0.00 0.00 78 1011.5
20260905124336 72 4 1.0 3.0 0.00 0.00 0.00 80 1011.7
20260905123346 72 8 1.0 3.0 0.00 0.00 0.00 82 1011.8
20260905122321 72 58 0.0 3.0 0.00 0.00 0.00 82 1011.8
20260905121317 72 11 1.0 3.0 0.00 0.00 0.00 80 1011.7
20260905120338 71 328 0.0 2.0 0.00 0.00 0.00 80 1011.9
20260905115334 71 7 0.0 3.0 0.00 0.00 0.00 81 1011.8
20260905114326 71 15 0.0 2.0 0.00 0.00 0.00 83 1011.7
20260905113337 71 8 0.0 0.0 0.00 0.00 0.00 84 1011.6
20260905112313 71 15 0.0 2.0 0.00 0.00 0.00 84 1011.4
20260905111335 71 143 0.0 0.0 0.00 0.00 0.00 85 1011.4
20260905110345 71 143 0.0 0.0 0.00 0.00 0.00 86 1011.3
20260905105320 71 143 0.0 0.0 0.00 0.00 0.00 86 1011.1
20260905104317 71 143 0.0 0.0 0.00 0.00 0.00 85 1011.0
20260905103314 71 143 0.0 0.0 0.00 0.00 0.00 83 1010.8
20260905102336 71 143 0.0 0.0 0.00 0.00 0.00 82 1010.8
20260905101332 71 143 0.0 0.0 0.00 0.00 0.00 81 1010.8
20260905100330 71 143 0.0 0.0 0.00 0.00 0.00 80 1010.7
20260905095349 72 143 0.0 0.0 0.00 0.00 0.00 81 1010.7
20260905094320 72 143 0.0 0.0 0.00 0.00 0.00 80 1010.6
20260905093316 72 143 0.0 0.0 0.00 0.00 0.00 80 1010.7
20260905092333 72 147 0.0 0.0 0.00 0.00 0.00 80 1010.6
20260905091311 72 147 0.0 0.0 0.00 0.00 0.00 80 1010.7
20260905090320 72 149 0.0 0.0 0.00 0.00 0.00 81 1010.7
20260905085344 72 355 0.0 1.0 0.00 0.00 0.00 81 1010.6
20260905084313 72 354 0.0 0.0 0.00 0.00 0.00 81 1010.6
20260905083333 72 5 0.0 1.0 0.00 0.00 0.00 81 1010.6
20260905082327 72 5 0.0 0.0 0.00 0.00 0.00 81 1010.5
20260905081349 72 5 0.0 0.0 0.00 0.00 0.00 82 1010.6
20260905080317 72 5 1.0 2.0 0.00 0.00 0.00 82 1010.7
20260905075313 72 8 0.0 3.0 0.00 0.00 0.00 83 1010.6
20260905074328 72 315 0.0 0.0 0.00 0.00 0.00 86 1010.6
20260905073318 72 314 0.0 0.0 0.00 0.00 0.00 85 1010.5
20260905072316 72 314 0.0 0.0 0.00 0.00 0.00 84 1010.6
20260905071314 72 314 0.0 0.0 0.00 0.00 0.00 85 1010.6
20260905070323 72 314 0.0 0.0 0.00 0.00 0.00 89 1010.7
20260905065320 72 314 0.0 0.0 0.00 0.00 0.00 90 1010.8
20260905064316 72 314 0.0 0.0 0.00 0.00 0.00 90 1010.8
20260905063332 72 314 0.0 0.0 0.00 0.00 0.00 90 1010.8
20260905062325 72 314 0.0 0.0 0.00 0.00 0.00 89 1010.9
20260905061318 72 314 0.0 0.0 0.00 0.00 0.00 88 1011.0
20260905060314 72 314 0.0 0.0 0.00 0.00 0.00 88 1011.1
20260905055311 72 313 0.0 0.0 0.00 0.00 0.00 88 1011.0
20260905054327 73 314 0.0 0.0 0.00 0.00 0.00 87 1011.1
20260905053315 73 314 0.0 0.0 0.00 0.00 0.00 86 1011.0
20260905052312 74 314 0.0 0.0 0.00 0.00 0.00 84 1011.1
20260905051328 75 314 0.0 0.0 0.00 0.00 0.00 83 1011.2
20260905050319 75 314 0.0 0.0 0.00 0.00 0.00 83 1011.2
20260905045316 76 309 0.0 0.0 0.00 0.00 0.00 82 1011.2
20260905044314 76 309 0.0 1.0 0.00 0.00 0.00 81 1011.4
20260905043355 76 147 0.0 1.0 0.00 0.00 0.00 80 1011.8
20260905042330 76 256 0.0 1.0 0.00 0.00 0.00 80 1011.7
20260905041320 76 33 0.0 0.0 0.00 0.00 0.00 79 1011.5
20260905040316 76 34 0.0 0.0 0.00 0.00 0.00 78 1011.4
20260905035311 77 34 0.0 0.0 0.00 0.00 0.00 78 1011.4
20260905034346 77 34 0.0 0.0 0.00 0.00 0.00 79 1011.4
20260905033315 77 34 0.0 0.0 0.00 0.00 0.00 80 1011.4
20260905032339 77 34 0.0 0.0 0.00 0.00 0.00 81 1011.3
20260905031335 77 34 0.0 0.0 0.00 0.00 0.00 81 1011.3
20260905030326 77 34 0.0 0.0 0.00 0.00 0.00 81 1011.3
20260905025322 77 34 0.0 0.0 0.00 0.00 0.00 81 1011.4
20260905024325 77 34 0.0 0.0 0.00 0.00 0.00 82 1011.3
20260905023317 77 35 0.0 0.0 0.00 0.00 0.00 82 1011.3
20260905022314 77 34 0.0 0.0 0.00 0.00 0.00 82 1011.3
20260905021311 77 34 0.0 0.0 0.00 0.00 0.00 82 1011.3
20260905020322 77 36 0.0 0.0 0.00 0.00 0.00 83 1011.3
20260905015319 77 35 0.0 0.0 0.00 0.00 0.00 84 1011.3
20260905014316 77 36 0.0 0.0 0.00 0.00 0.00 83 1011.3
20260905013317 77 36 0.0 0.0 0.00 0.00 0.00 82 1011.2
20260905012330 77 36 0.0 0.0 0.00 0.00 0.00 82 1011.4
20260905011320 77 36 0.0 0.0 0.00 0.00 0.00 82 1011.4
20260905010337 77 36 0.0 0.0 0.00 0.00 0.00 82 1011.4
20260905005312 77 36 0.0 0.0 0.00 0.00 0.00 82 1011.4
20260905004326 78 36 0.0 0.0 0.00 0.00 0.00 82 1011.4
20260905003324 78 36 0.0 0.0 0.00 0.00 0.00 82 1011.3
20260905002319 78 35 0.0 0.0 0.00 0.00 0.00 81 1011.1
20260905001340 78 36 0.0 0.0 0.00 0.00 0.00 80 1011.1
20260905000310 79 36 0.0 0.0 0.00 0.00 0.00 79 1011.1
20260904235327 79 36 0.0 0.0 0.00 0.00 0.00 78 1010.9
20260904234352 79 35 0.0 0.0 0.00 0.00 0.00 77 1010.8
20260904233320 80 36 0.0 0.0 0.00 0.00 0.00 75 1010.9
20260904232320 80 36 0.0 0.0 0.00 0.00 0.00 74 1010.9
20260904231317 81 36 0.0 0.0 0.00 0.00 0.00 73 1011.0
20260904230309 82 36 0.0 0.0 0.00 0.00 0.00 72 1010.9
20260904225324 82 36 0.0 0.0 0.00 0.00 0.00 70 1011.1
20260904224317 83 33 0.0 1.0 0.00 0.00 0.00 68 1011.0
20260904223335 83 20 0.0 1.0 0.00 0.00 0.00 67 1011.1
20260904222332 84 6 0.0 1.0 0.00 0.00 0.00 67 1011.3
20260904221326 84 150 0.0 0.0 0.00 0.00 0.00 67 1011.2
20260904220319 85 219 0.0 1.0 0.00 0.00 0.00 66 1011.2
20260904215338 85 147 0.0 2.0 0.00 0.00 0.00 65 1011.2
20260904214312 85 238 0.0 1.0 0.00 0.00 0.00 63 1011.3
20260904213310 85 338 0.0 4.0 0.00 0.00 0.00 63 1011.4
20260904212330 86 21 0.0 6.0 0.00 0.00 0.00 62 1011.5
20260904211322 87 18 1.0 7.0 0.00 0.00 0.00 58 1011.3
20260904210341 88 158 0.0 4.0 0.00 0.00 0.00 57 1011.1
20260904205335 89 4 0.0 7.0 0.00 0.00 0.00 55 1011.0
20260904204329 90 233 2.0 5.0 0.00 0.00 0.00 53 1011.0
20260904202331 90 360 0.0 4.0 0.00 0.00 0.00 57 1011.1
20260904201319 90 21 1.0 2.0 0.00 0.00 0.00 56 1011.2
20260904200337 89 342 0.0 8.0 0.00 0.00 0.00 60 1011.5
20260904195331 89 37 1.0 6.0 0.00 0.00 0.00 56 1011.6
20260904194330 88 125 1.0 5.0 0.00 0.00 0.00 59 1011.6
20260904193323 88 360 1.0 4.0 0.00 0.00 0.00 58 1011.9
20260904191312 89 7 0.0 5.0 0.00 0.00 0.00 58 1012.1
20260904190319 89 123 2.0 5.0 0.00 0.00 0.00 55 1012.2
20260904185322 88 336 1.0 7.0 0.00 0.00 0.00 58 1012.4
20260904184324 88 326 2.0 5.0 0.00 0.00 0.00 58 1012.4
20260904183322 88 125 2.0 5.0 0.00 0.00 0.00 59 1012.6
20260904182323 87 45 2.0 7.0 0.00 0.00 0.00 60 1012.6
20260904181327 87 352 0.0 3.0 0.00 0.00 0.00 62 1012.7
20260904180324 88 139 0.0 5.0 0.00 0.00 0.00 58 1012.7
20260904175327 89 220 0.0 4.0 0.00 0.00 0.00 59 1012.5
20260904174325 88 317 0.0 3.0 0.00 0.00 0.00 61 1012.6
20260904173320 87 252 1.0 5.0 0.00 0.00 0.00 62 1012.7
20260904172320 87 139 0.0 2.0 0.00 0.00 0.00 60 1012.8
20260904171320 88 297 0.0 5.0 0.00 0.00 0.00 61 1012.8
20260904170317 88 8 0.0 3.0 0.00 0.00 0.00 61 1012.8
20260904165317 87 245 0.0 2.0 0.00 0.00 0.00 61 1012.7
20260904164346 86 75 0.0 6.0 0.00 0.00 0.00 62 1012.8
20260904163317 86 203 1.0 3.0 0.00 0.00 0.00 61 1012.9
20260904162318 87 11 3.0 6.0 0.00 0.00 0.00 59 1013.0
20260904161341 87 72 1.0 6.0 0.00 0.00 0.00 60 1012.9
20260904160316 87 86 2.0 5.0 0.00 0.00 0.00 59 1013.0
20260904155317 88 11 0.0 6.0 0.00 0.00 0.00 58 1013.0
20260904154317 87 19 2.0 6.0 0.00 0.00 0.00 62 1012.9
20260904153326 85 8 0.0 5.0 0.00 0.00 0.00 65 1012.9
20260904152326 85 56 2.0 9.0 0.00 0.00 0.00 67 1013.1
20260904151325 85 59 0.0 4.0 0.00 0.00 0.00 68 1013.0
20260904150317 84 35 0.0 5.0 0.00 0.00 0.00 70 1013.1
20260904145338 84 259 1.0 6.0 0.00 0.00 0.00 69 1013.1
20260904144317 83 83 1.0 6.0 0.00 0.00 0.00 70 1013.0
20260904143316 83 21 1.0 6.0 0.00 0.00 0.00 71 1012.9
20260904142333 82 46 1.0 7.0 0.00 0.00 0.00 72 1012.8
20260904141334 82 1 2.0 8.0 0.00 0.00 0.00 72 1012.8
20260904140328 82 1 1.0 5.0 0.00 0.00 0.00 74 1012.7
20260904135347 81 321 3.0 9.0 0.00 0.00 0.00 74 1012.7
20260904134325 81 1 1.0 6.0 0.00 0.00 0.00 76 1012.6
20260904133316 80 304 0.0 9.0 0.00 0.00 0.00 78 1012.8
20260904132318 79 288 1.0 6.0 0.00 0.00 0.00 78 1012.8